Weather reports worldwide

Advertisment
Leuchars, United Kingdom (3171): temperature & dewpoint: 15.05.2019 15:00:00 - 21.05.2019 15:00:00 (BST)Leuchars, United Kingdom (3171): temperature -20cm & temperature -100cm: 15.05.2019 15:00:00 - 21.05.2019 15:00:00 (BST)Leuchars, United Kingdom (3171): wind speed & gusts: 15.05.2019 15:00:00 - 21.05.2019 15:00:00 (BST)Leuchars, United Kingdom (3171): wind direction: 15.05.2019 15:00:00 - 21.05.2019 15:00:00 (BST)Leuchars, United Kingdom (3171): reduced air pressure: 15.05.2019 15:00:00 - 21.05.2019 15:00:00 (BST)Leuchars, United Kingdom (3171): visibility: 15.05.2019 15:00:00 - 21.05.2019 15:00:00 (BST)Leuchars, United Kingdom (3171): sunshine duration: 15.05.2019 15:00:00 - 21.05.2019 15:00:00 (BST)Leuchars, United Kingdom (3171): precipitation: 15.05.2019 15:00:00 - 21.05.2019 15:00:00 (BST)
Date & Time tt [°C] td [°C] tt -20cm [°C] tt -100cm [°C] ff [km/h] ff [kn] fx [km/h] fx [kn] dd ppp [hPa] vv [km] sd [min] rr [mm]
21.05.2019 15:00:00 14,8 9,7 - - 16 9 - - WSW 1017,6 35 6 0,0
21.05.2019 14:00:00 14,3 9,4 - - 16 9 - - WSW 1017,7 35 18 0,0
21.05.2019 13:00:00 13,6 8,4 - - 5 3 - - SW 1017,7 50 0 0,0
21.05.2019 12:00:00 12,5 9,4 - - 11 6 - - SE 1018,0 10 0 0,0
21.05.2019 11:00:00 12,2 8,8 - - 11 6 - - ESE 1018,0 50 0 0,0
21.05.2019 10:00:00 11,8 7,7 11,7 10,4 8 4 - - WNW 1017,8 45 0 0,0
21.05.2019 09:00:00 11,8 7,9 - - 5 3 - - WNW 1017,5 50 12 0,0
21.05.2019 08:00:00 11,5 9,6 - - 9 5 - - W 1017,1 10 30 0,0
21.05.2019 07:00:00 9,7 8,7 - - 2 1 - - W 1016,7 50 0 0,0
21.05.2019 06:00:00 9,9 9,2 - - 4 2 - - NNW 1016,4 10 0 0,2
21.05.2019 05:00:00 10,0 9,5 - - 5 3 - - NW 1016,3 10 0 0,8
21.05.2019 04:00:00 10,1 10,1 - - 9 5 - - WNW 1015,8 8 0 3,0
21.05.2019 03:00:00 10,6 10,6 - - 2 1 - - WNW 1015,6 2,6 0 0,6
21.05.2019 02:00:00 10,5 10,5 - - 5 3 - - NE 1015,3 4,5 0 0,0
21.05.2019 01:00:00 10,4 10,4 - - 5 3 - - NNE 1015,3 4,5 - 0,0
21.05.2019 00:00:00 10,4 10,3 - - 5 3 - - NE 1015,2 4,5 0 0,0
20.05.2019 23:00:00 10,6 10,6 - - 4 2 - - NNE 1015,0 8 0 0,0
20.05.2019 22:00:00 10,7 10,5 - - 2 1 - - NNE 1014,7 6 0 0,0
20.05.2019 21:00:00 11,0 10,1 - - 8 4 - - NE 1014,2 9 0 0,0
20.05.2019 20:00:00 13,7 11,2 - - 5 3 - - NNE 1014,0 40 0 0,0
20.05.2019 19:00:00 14,6 10,7 - - 4 2 - - WNW 1013,6 10 0 0,0
20.05.2019 18:00:00 14,3 10,9 - - 2 1 - - NE 1013,3 10 0 0,0
20.05.2019 17:00:00 14,1 11,3 - - 9 5 - - NNE 1013,2 50 0 0,0
20.05.2019 16:00:00 13,2 11,5 - - 11 6 - - N 1013,1 10 0 0,0
20.05.2019 15:00:00 16,4 9,9 - - 15 8 - - SW 1012,7 10 30 0,0
20.05.2019 14:00:00 14,8 10,2 - - 9 5 - - ESE 1012,6 10 0 0,0
20.05.2019 13:00:00 16,6 9,8 - - 9 5 - - WSW 1012,3 35 42 0,0
20.05.2019 12:00:00 15,4 9,5 - - 2 1 - - N 1012,4 35 48 0,0
20.05.2019 11:00:00 14,1 9,5 - - 5 3 - - W 1012,5 10 0 0,0
20.05.2019 10:00:00 13,1 9,5 11,2 10,2 8 4 - - WNW 1012,4 10 0 0,0
20.05.2019 09:00:00 11,8 9,8 - - 11 6 - - W 1012,4 10 0 0,0
20.05.2019 08:00:00 11,1 9,4 - - 13 7 - - W 1011,9 10 0 0,0
20.05.2019 07:00:00 10,6 9,2 - - 11 6 - - W 1011,6 10 0 0,0
20.05.2019 06:00:00 10,5 9,4 - - 15 8 - - W 1011,3 50 0 0,0
20.05.2019 05:00:00 10,4 9,6 - - 11 6 - - W 1011,1 10 0 0,0
20.05.2019 04:00:00 10,7 9,5 - - 9 5 - - W 1011,0 40 0 0,0
20.05.2019 03:00:00 10,8 9,5 - - 11 6 - - W 1011,1 10 0 0,0
20.05.2019 02:00:00 11,0 9,8 - - 13 7 - - W 1011,2 30 0 0,0
20.05.2019 01:00:00 11,3 9,7 - - 8 4 - - W 1011,3 10 - 0,0
20.05.2019 00:00:00 11,6 9,8 - - 2 1 - - SSW 1011,3 30 0 0,0
19.05.2019 23:00:00 11,6 10,1 - - 5 3 - - W 1011,2 10 0 0,0
19.05.2019 22:00:00 12,1 10,3 - - 8 4 - - W 1010,8 30 0 0,0
19.05.2019 21:00:00 12,5 10,5 - - 5 3 - - SW 1010,7 24 0 0,0
19.05.2019 20:00:00 12,5 10,4 - - 8 4 - - SSW 1010,4 10 0 0,0
19.05.2019 19:00:00 12,6 9,9 - - 11 6 - - S 1010,2 40 0 0,0
19.05.2019 18:00:00 13,4 10,1 - - 13 7 - - S 1010,2 30 0 0,0
19.05.2019 17:00:00 13,8 10,6 - - 15 8 - - S 1010,0 40 0 0,0
19.05.2019 16:00:00 13,5 10,7 - - 9 5 - - E 1009,9 35 0 0,0
19.05.2019 15:00:00 12,7 10,1 - - 9 5 - - E 1009,8 35 0 0,0
19.05.2019 14:00:00 13,3 11,3 - - 9 5 - - E 1009,6 23 6 0,0
19.05.2019 13:00:00 11,0 9,5 - - 15 8 - - E 1009,7 15 0 0,0
19.05.2019 12:00:00 11,9 8,8 - - 15 8 - - ESE 1009,4 30 18 0,0
19.05.2019 11:00:00 11,8 9,3 - - 13 7 - - E 1009,3 18 0 0,0
19.05.2019 10:00:00 12,2 10,2 11,0 10,2 13 7 - - E 1009,0 20 6 0,0
19.05.2019 09:00:00 11,8 9,2 - - 9 5 - - SE 1008,7 45 6 0,0
19.05.2019 08:00:00 11,2 10,0 - - 9 5 - - ESE 1008,3 14 0 0,0
19.05.2019 07:00:00 10,7 10,7 - - 8 4 - - SE 1008,1 8 0 0,0
19.05.2019 06:00:00 10,2 10,2 - - 9 5 - - E 1008,1 3,3 0 0,0
19.05.2019 05:00:00 10,2 10,2 - - 9 5 - - E 1008,0 2,7 0 0,0
19.05.2019 04:00:00 10,1 10,1 - - 9 5 - - E 1007,9 2,3 0 0,0
19.05.2019 03:00:00 10,1 10,1 - - 9 5 - - E 1008,0 2,5 0 0,0
19.05.2019 02:00:00 10,1 10,1 - - 9 5 - - E 1008,0 4,3 0 0,0
19.05.2019 01:00:00 10,2 10,2 - - 11 6 - - E 1008,2 5 - 0,0
19.05.2019 00:00:00 10,2 10,2 - - 11 6 - - E 1008,3 7 0 0,0
18.05.2019 23:00:00 10,3 10,3 - - 11 6 - - E 1008,4 6 0 0,2
18.05.2019 22:00:00 10,4 10,4 - - 13 7 - - E 1008,3 7 0 0,0
18.05.2019 21:00:00 10,5 10,5 - - 16 9 - - E 1008,1 7 0 0,0
18.05.2019 20:00:00 10,6 10,5 - - 16 9 - - E 1007,9 6 0 0,0
18.05.2019 19:00:00 10,8 10,5 - - 16 9 - - E 1007,7 6 0 0,0
18.05.2019 18:00:00 10,8 10,7 - - 15 8 - - E 1007,6 30 0 0,0
18.05.2019 17:00:00 10,6 10,6 - - 16 9 - - E 1007,6 10 0 0,0
18.05.2019 16:00:00 9,9 9,9 - - 16 9 - - ENE 1007,6 6 0 0,0
18.05.2019 15:00:00 9,9 9,9 - - 18 10 - - ENE 1007,7 3,9 0 0,0
18.05.2019 14:00:00 10,3 10,3 - - 22 12 - - ENE 1007,8 5 0 0,2
18.05.2019 13:00:00 10,1 10,1 - - 21 11 - - ENE 1008,1 4,5 0 0,0
18.05.2019 12:00:00 10,2 10,2 - - 22 12 - - ENE 1008,2 5 0 0,2
18.05.2019 11:00:00 9,7 9,7 - - 21 11 - - ENE 1008,4 5 0 0,0
18.05.2019 10:00:00 9,9 9,9 11,2 10,0 26 14 - - ENE 1008,6 7 0 0,0
18.05.2019 09:00:00 9,6 9,6 - - 22 12 - - ENE 1008,7 7 0 0,2
18.05.2019 08:00:00 9,7 9,5 - - 28 15 - - ENE 1009,0 9 0 0,4
18.05.2019 07:00:00 9,9 9,7 - - 21 11 - - NE 1009,2 14 0 0,2
18.05.2019 06:00:00 9,8 9,8 - - 22 12 - - ENE 1009,6 6 0 0,4
18.05.2019 05:00:00 9,8 9,8 - - 24 13 - - ENE 1010,1 5 0 0,6
18.05.2019 04:00:00 9,9 9,7 - - 26 14 - - NE 1010,8 9 0 0,4
18.05.2019 03:00:00 9,8 9,7 - - 24 13 - - NE 1011,6 9 0 0,4
18.05.2019 02:00:00 9,6 9,5 - - 24 13 - - NE 1012,1 8 0 0,6
18.05.2019 01:00:00 9,6 9,6 - - 21 11 - - ENE 1012,9 5 - 1,6
18.05.2019 00:00:00 9,7 9,7 - - 21 11 - - ENE 1013,3 7 0 1,2
17.05.2019 23:00:00 9,3 9,2 - - 21 11 - - NE 1013,9 3,5 0 0,8
17.05.2019 22:00:00 9,5 9,0 - - 18 10 - - NE 1014,4 5 0 0,2
17.05.2019 21:00:00 10,7 8,0 - - 22 12 - - ENE 1014,5 16 0 0,0
17.05.2019 20:00:00 10,8 8,1 - - 24 13 - - ENE 1014,7 15 0 0,0
17.05.2019 19:00:00 10,9 8,1 - - 24 13 - - ENE 1014,8 10 0 0,0
17.05.2019 18:00:00 11,4 8,1 - - 28 15 - - ENE 1015,0 18 12 0,0
17.05.2019 17:00:00 12,5 8,4 - - 29 16 46 25 ENE 1015,4 10 60 0,0
17.05.2019 16:00:00 13,2 9,1 - - 34 18 48 26 ENE 1015,7 10 60 0,0
17.05.2019 15:00:00 13,5 8,8 - - 34 18 46 25 ENE 1016,1 14 60 0,0
17.05.2019 14:00:00 13,8 8,2 - - 29 16 - - E 1016,3 20 60 0,0
17.05.2019 13:00:00 14,1 7,8 - - 28 15 - - ENE 1016,8 10 60 0,0
17.05.2019 12:00:00 15,1 5,7 - - 28 15 - - ENE 1017,4 27 60 0,0
17.05.2019 11:00:00 14,1 5,9 - - 26 14 - - ENE 1017,9 35 60 0,0
17.05.2019 10:00:00 13,7 5,7 11,2 10,0 26 14 - - ENE 1018,5 10 42 0,0
17.05.2019 09:00:00 12,4 6,4 - - 24 13 - - ENE 1018,8 10 48 0,0
17.05.2019 08:00:00 11,0 6,0 - - 13 7 - - NE 1019,3 10 0 0,0
17.05.2019 07:00:00 9,3 7,8 - - 8 4 - - N 1019,6 10 0 0,0
17.05.2019 06:00:00 7,6 6,6 - - 4 2 - - NNW 1020,0 30 0 0,0
17.05.2019 05:00:00 7,4 6,7 - - 4 2 - - N 1020,3 10 0 0,0
17.05.2019 04:00:00 7,1 7,0 - - 9 5 - - N 1020,5 10 0 0,0
17.05.2019 03:00:00 6,6 6,6 - - 9 5 - - N 1021,0 11 0 0,0
17.05.2019 02:00:00 5,3 5,1 - - 9 5 - - N 1021,5 10 0 0,0
17.05.2019 01:00:00 6,0 5,5 - - 8 4 - - NE 1021,8 10 - 0,0
17.05.2019 00:00:00 8,0 6,4 - - 9 5 - - E 1022,2 23 0 0,0
16.05.2019 23:00:00 9,2 8,0 - - 13 7 - - ESE 1022,1 21 0 0,0
16.05.2019 22:00:00 9,7 7,9 - - 16 9 - - ESE 1022,2 10 0 0,0
16.05.2019 21:00:00 10,2 7,7 - - 21 11 - - ESE 1022,2 30 48 0,0
16.05.2019 20:00:00 10,8 7,4 - - 24 13 - - ESE 1022,1 45 60 0,0
16.05.2019 19:00:00 11,3 7,7 - - 26 14 - - ESE 1022,1 27 60 0,0
16.05.2019 18:00:00 11,4 7,2 - - 31 17 - - ESE 1022,3 30 60 0,0
16.05.2019 17:00:00 11,6 7,0 - - 34 18 - - ESE 1022,4 10 60 0,0
16.05.2019 16:00:00 11,9 7,6 - - 34 18 - - ESE 1022,8 10 60 0,0
16.05.2019 15:00:00 12,0 7,7 - - 31 17 - - ESE 1023,3 30 60 0,0
16.05.2019 14:00:00 11,7 7,2 - - 34 18 - - ESE 1023,5 23 60 0,0
16.05.2019 13:00:00 11,8 7,7 - - 34 18 - - ESE 1023,8 10 60 0,0
16.05.2019 12:00:00 11,8 8,0 - - 35 19 - - ESE 1024,0 28 60 0,0
16.05.2019 11:00:00 11,8 8,8 - - 31 17 - - E 1024,3 25 60 0,0
16.05.2019 10:00:00 11,6 8,1 11,0 9,7 28 15 - - ESE 1024,2 30 60 0,0
16.05.2019 09:00:00 11,6 8,0 - - 18 10 - - ESE 1024,2 16 60 0,0
16.05.2019 08:00:00 10,8 8,4 - - 22 12 - - ESE 1024,3 21 60 0,0
16.05.2019 07:00:00 10,1 8,0 - - 21 11 - - ESE 1024,4 10 30 0,0
16.05.2019 06:00:00 9,6 7,5 - - 18 10 - - ESE 1024,5 19 0 0,0
16.05.2019 05:00:00 9,4 7,3 - - 16 9 - - ESE 1024,4 25 0 0,0
16.05.2019 04:00:00 9,5 7,2 - - 15 8 - - E 1024,7 10 0 0,0
16.05.2019 03:00:00 9,7 7,0 - - 16 9 - - E 1024,8 27 0 0,0
16.05.2019 02:00:00 9,8 7,8 - - 15 8 - - E 1025,3 28 0 0,0
16.05.2019 01:00:00 9,6 8,1 - - 9 5 - - ENE 1025,5 10 - 0,0
16.05.2019 00:00:00 9,8 9,5 - - 15 8 - - ENE 1025,6 7 0 0,0
15.05.2019 23:00:00 10,5 9,4 - - 13 7 - - ENE 1025,7 9 0 0,0
15.05.2019 22:00:00 10,5 10,0 - - 13 7 - - ENE 1025,8 6 0 0,0
15.05.2019 21:00:00 10,9 10,0 - - 15 8 - - ENE 1025,7 5 0 0,0
15.05.2019 20:00:00 11,7 10,0 - - 18 10 - - ENE 1025,7 4,6 36 0,0
15.05.2019 19:00:00 12,6 10,1 - - 16 9 - - E 1025,7 7 60 0,0
15.05.2019 18:00:00 13,4 10,6 - - 16 9 - - E 1025,8 9 60 0,0
15.05.2019 17:00:00 13,6 10,4 - - 18 10 - - E 1026,1 11 60 0,0
15.05.2019 16:00:00 13,8 10,5 - - 18 10 - - E 1026,3 10 60 0,0
15.05.2019 15:00:00 14,4 10,8 - - 18 10 - - E 1026,7 10 60 0,0

tt = temperature
td = dewpoint
tt -20cm = temperature -20cm
tt -100cm = temperature -100cm
ff = wind speed
fx = gusts
dd = wind direction
ppp = reduced air pressure
vv = visibility
sd = sunshine duration
rr = precipitation

Next stations